Content
SEND FEEDBACK

Daily
Averages
Monthly
Summary
United States of America

HAMILTON, KANSAS


Home > North America > United States > Kansas
Elevation: 436 meters     Latitude: 38 01N     Longitude: 096 19W

WEATHER
 
SELECT A DAY
Number of Records: 200,264;   Date Range: 1/1/95 - 10/22/14
 
SHARE

PRINT THIS DATA

[ ← Previous Day ]
WEATHER ALMANAC - 31 JANUARY, 2013
[ Next Day → ]
[ °F ]   °C
Weather ElementAverageHighLow
Temperature-7.1 °C-3.3 °C (4:53 am)-12.2 °C (8:53 pm)
Dewpoint-11.8 °C-7.2 °C (4:53 am)-16.1 °C (5:53 pm)
Humidity70.1 %88 % (1:53 am)48 % (3:53 pm)
Barometer1024.7 hPa1033.9 hPa (8:53 pm)1015.2 hPa (3:53 am)
Wind Speed15.9 km/h33.3 km/h (2:53 pm)
Wind Gust44.4 km/h (2:53 pm)
Weather ElementAverage
Visibility15.9 km
Wind DirectionWSW (258.6 °)

Weather ElementTotal
Precipitation---
Heating Degree Days26.1 (Base 18.3)
Averaged from 22 records on 31 January, 2013
WEATHER CONDITIONS BREAKOUT
WIND DIRECTION BREAKOUT
WEATHER BY HOUR - 31 JANUARY, 2013
[ °F ]   °C
Local TimeTemperatureDewpointHumidityBarometerVisibilityWind DirectionWind SpeedGust SpeedPrecipitationEventsConditions
1:53 AM-7.8 °C-9.4 °C88 %1016.3 hPa16.1 kmSouth (170°)13 km/hClear
2:53 AM-7.2 °C-10 °C81 %1015.9 hPa16.1 kmCalmClear
3:53 AM-4.4 °C-8.3 °C75 %1015.2 hPa16.1 kmWSW (240°)9.3 km/hMostly Cloudy
4:53 AM-3.3 °C-7.2 °C75 %1015.6 hPa16.1 kmWest (270°)11.1 km/hOvercast
5:53 AM-3.3 °C-7.2 °C75 %1015.6 hPa16.1 kmWest (280°)11.1 km/hMostly Cloudy
6:53 AM-3.9 °C-7.2 °C78 %1017.3 hPa16.1 kmNNW (330°)14.8 km/hMostly Cloudy
7:53 AM-4.4 °C-7.8 °C77 %1019 hPa12.9 kmNorth (360°)20.4 km/hOvercast
8:53 AM-5 °C-8.9 °C74 %1020.7 hPa16.1 kmNorth (360°)18.5 km/hOvercast
9:53 AM-5 °C-9.4 °C72 %1021.7 hPa16.1 kmNorth (360°)31.5 km/h40.7 km/hMostly Cloudy
10:53 AM-5.6 °C-10 °C72 %1024.4 hPa16.1 kmNNW (340°)29.6 km/h37 km/hOvercast
11:53 AM-5 °C-9.4 °C72 %1025.7 hPa16.1 kmNorth (360°)24.1 km/h33.3 km/h
12:53 PM-6.1 °C-11.1 °C68 %1026.8 hPa16.1 kmNorth (350°)25.9 km/h38.9 km/hOvercast
2:53 PM-5 °C-13.9 °C50 %1027.4 hPa16.1 kmNW (320°)33.3 km/h44.4 km/hClear
3:53 PM-5.6 °C-15 °C48 %1028.1 hPa16.1 kmNNW (340°)31.5 km/h42.6 km/hClear
4:53 PM-7.2 °C-15.6 °C52 %1029.1 hPa16.1 kmNNW (340°)27.8 km/hClear
5:53 PM-8.9 °C-16.1 °C57 %1029.8 hPa16.1 kmNNW (340°)20.4 km/hClear
6:53 PM-9.4 °C-16.1 °C59 %1031.2 hPa16.1 kmNNW (330°)14.8 km/hClear
7:53 PM-11.1 °C-15.6 °C70 %1032.2 hPa16.1 kmNNW (340°)5.6 km/hClear
8:53 PM-12.2 °C-15.6 °C76 %1033.9 hPa16.1 kmWest (260°)7.4 km/hClear
9:53 PM-11.7 °C-16.1 °C70 %1033.5 hPa16.1 kmCalmClear
10:53 PM-12.2 °C-16.1 °C73 %1033.9 hPa16.1 kmCalmClear
11:53 PM-11.7 °C-14.4 °C81 %1033.5 hPa16.1 kmCalmClear
Hourly data recorded from KEMP, located 0 kilometers away from Hamilton, Kansas







STORIES FROM OUR PARTNERS